• In Latvia
  • List of Countries
  • For 7 days
  • Water Temperature
  • Satellite Maps
  • Weather Map
  • Weather Widgets
  • user-avatar
    Login

    Hourly Weather Selidovo

    Today, 23 September, Sunday

    Time Temperature Precipitation Wind Pressure Humidity
    00:00 +19°C° 0 mm 2 mps 747 mmHg 50%
    01:00 +19°C° 0 mm 2 mps 746 mmHg 52%
    02:00 +18°C° 0 mm 2 mps 746 mmHg 55%
    03:00 +18°C° 0 mm 2 mps 746 mmHg 57%
    04:00 +18°C° 0 mm 2 mps 745 mmHg 59%
    05:00 +17°C° 0 mm 2 mps 745 mmHg 61%
    06:00 +19°C° 0 mm 3 mps 745 mmHg 57%
    07:00 +20°C° 0 mm 3 mps 745 mmHg 53%
    08:00 +22°C° 0 mm 3 mps 745 mmHg 48%
    09:00 +23°C° 0 mm 4 mps 745 mmHg 46%
    10:00 +25°C° 0 mm 4 mps 745 mmHg 44%
    11:00 +25°C° 0 mm 5 mps 745 mmHg 42%
    12:00 +22°C° 0.7 mm 5 mps 746 mmHg 53%
    13:00 +20°C° 0.7 mm 5 mps 746 mmHg 64%
    14:00 +16°C° 0 mm 5 mps 746 mmHg 78%
    15:00 +15°C° 0.8 mm 5 mps 746 mmHg 77%
    16:00 +15°C° 0.8 mm 5 mps 746 mmHg 77%
    17:00 +14°C° 0.8 mm 4 mps 747 mmHg 77%
    18:00 +14°C° 0 mm 4 mps 747 mmHg 77%
    19:00 +13°C° 0 mm 3 mps 747 mmHg 78%
    20:00 +12°C° 0 mm 3 mps 748 mmHg 79%
    21:00 +12°C° 0 mm 3 mps 748 mmHg 79%
    22:00 +12°C° 0 mm 2 mps 748 mmHg 78%
    23:00 +12°C° 0 mm 2 mps 748 mmHg 78%

    Tomorrow, 24 September, Monday

    Time Temperature Precipitation Wind Pressure Humidity
    00:00 +10°C° 0 mm 2 mps 748 mmHg 78%
    01:00 +11°C° 0 mm 1 mps 749 mmHg 78%
    02:00 +11°C° 0 mm 1 mps 749 mmHg 78%
    03:00 +11°C° 0 mm 1 mps 749 mmHg 78%
    04:00 +11°C° 0 mm 1 mps 748 mmHg 78%
    05:00 +11°C° 0 mm 1 mps 748 mmHg 78%
    06:00 +12°C° 0 mm 2 mps 748 mmHg 72%
    07:00 +12°C° 0 mm 3 mps 748 mmHg 66%
    08:00 +14°C° 0 mm 4 mps 748 mmHg 60%
    09:00 +15°C° 0 mm 4 mps 748 mmHg 54%
    10:00 +17°C° 0 mm 5 mps 747 mmHg 48%
    11:00 +19°C° 0 mm 5 mps 747 mmHg 42%
    12:00 +20°C° 0 mm 6 mps 746 mmHg 39%
    13:00 +21°C° 0 mm 6 mps 745 mmHg 37%
    14:00 +21°C° 0 mm 6 mps 745 mmHg 35%
    15:00 +21°C° 0 mm 6 mps 744 mmHg 38%
    16:00 +20°C° 0 mm 6 mps 743 mmHg 41%
    17:00 +19°C° 0 mm 6 mps 742 mmHg 45%
    18:00 +19°C° 0 mm 6 mps 742 mmHg 52%
    19:00 +17°C° 0 mm 6 mps 742 mmHg 58%
    20:00 +17°C° 0 mm 7 mps 741 mmHg 65%
    21:00 +17°C° 0.2 mm 7 mps 741 mmHg 70%
    22:00 +17°C° 0.2 mm 7 mps 741 mmHg 75%
    23:00 +16°C° 0.2 mm 7 mps 741 mmHg 80%

    Day after tomorrow, 25 September, Tuesday

    Time Temperature Precipitation Wind Pressure Humidity
    00:00 +15°C° 0.5 mm 7 mps 742 mmHg 80%
    01:00 +13°C° 0.5 mm 6 mps 742 mmHg 80%
    02:00 +11°C° 0.5 mm 6 mps 742 mmHg 80%
    03:00 +10°C° 1.2 mm 6 mps 742 mmHg 80%
    04:00 +10°C° 1.2 mm 5 mps 743 mmHg 81%
    05:00 +9°C° 1.2 mm 5 mps 743 mmHg 81%
    06:00 +10°C° 0.1 mm 5 mps 744 mmHg 77%
    07:00 +12°C° 0.1 mm 5 mps 744 mmHg 74%
    08:00 +11°C° 0.1 mm 6 mps 745 mmHg 70%
    09:00 +13°C° 0 mm 6 mps 745 mmHg 65%
    10:00 +14°C° 0 mm 6 mps 745 mmHg 59%
    11:00 +15°C° 0 mm 6 mps 746 mmHg 54%
    12:00 +15°C° 0.1 mm 6 mps 746 mmHg 51%
    13:00 +15°C° 0.1 mm 6 mps 746 mmHg 48%
    14:00 +15°C° 0.1 mm 7 mps 746 mmHg 45%
    15:00 +15°C° 0.1 mm 6 mps 746 mmHg 47%
    16:00 +14°C° 0.1 mm 6 mps 746 mmHg 49%
    17:00 +13°C° 0.1 mm 5 mps 746 mmHg 52%
    18:00 +12°C° 0 mm 5 mps 747 mmHg 57%
    19:00 +11°C° 0 mm 4 mps 748 mmHg 62%
    20:00 +10°C° 0 mm 4 mps 749 mmHg 67%
    21:00 +10°C° 0 mm 4 mps 749 mmHg 69%
    22:00 +10°C° 0 mm 4 mps 750 mmHg 71%
    23:00 +8°C° 0 mm 4 mps 750 mmHg 73%

    26 September, Wednesday

    Time Temperature Precipitation Wind Pressure Humidity
    00:00 +8°C° 0 mm 4 mps 750 mmHg 73%
    01:00 +7°C° 0 mm 4 mps 751 mmHg 73%
    02:00 +7°C° 0 mm 4 mps 751 mmHg 73%
    03:00 +6°C° 0 mm 4 mps 752 mmHg 75%
    04:00 +7°C° 0 mm 3 mps 752 mmHg 77%
    05:00 +5°C° 0 mm 3 mps 753 mmHg 79%
    06:00 +7°C° 0 mm 3 mps 753 mmHg 74%
    07:00 +8°C° 0 mm 3 mps 754 mmHg 68%
    08:00 +8°C° 0 mm 4 mps 754 mmHg 62%
    09:00 +10°C° 0 mm 4 mps 754 mmHg 56%
    10:00 +11°C° 0 mm 4 mps 755 mmHg 50%
    11:00 +12°C° 0 mm 4 mps 755 mmHg 44%
    12:00 +12°C° 0 mm 4 mps 755 mmHg 42%
    13:00 +13°C° 0 mm 4 mps 755 mmHg 41%
    14:00 +13°C° 0 mm 4 mps 755 mmHg 39%
    15:00 +12°C° 0 mm 3 mps 755 mmHg 41%
    16:00 +12°C° 0 mm 3 mps 755 mmHg 42%
    17:00 +11°C° 0 mm 3 mps 755 mmHg 43%
    18:00 +12°C° 0 mm 2 mps 755 mmHg 45%
    19:00 +10°C° 0 mm 2 mps 756 mmHg 48%
    20:00 +10°C° 0 mm 2 mps 756 mmHg 50%
    21:00 +9°C° 0 mm 2 mps 756 mmHg 52%
    22:00 +8°C° 0 mm 2 mps 756 mmHg 55%
    23:00 +8°C° 0 mm 2 mps 756 mmHg 57%

    27 September, Thursday

    Time Temperature Precipitation Wind Pressure Humidity
    00:00 +7°C° 0 mm 2 mps 756 mmHg 58%
    01:00 +7°C° 0 mm 2 mps 756 mmHg 60%
    02:00 +6°C° 0 mm 2 mps 756 mmHg 61%
    03:00 +6°C° 0 mm 2 mps 756 mmHg 62%
    04:00 +5°C° 0 mm 2 mps 756 mmHg 62%
    05:00 +6°C° 0 mm 1 mps 756 mmHg 63%
    06:00 +6°C° 0 mm 2 mps 756 mmHg 57%
    07:00 +8°C° 0 mm 2 mps 756 mmHg 52%
    08:00 +9°C° 0 mm 2 mps 756 mmHg 47%
    09:00 +10°C° 0 mm 3 mps 756 mmHg 42%
    10:00 +12°C° 0 mm 4 mps 755 mmHg 37%
    11:00 +13°C° 0 mm 4 mps 755 mmHg 32%
    12:00 +14°C° 0 mm 5 mps 755 mmHg 31%
    13:00 +14°C° 0 mm 5 mps 754 mmHg 29%
    14:00 +15°C° 0 mm 5 mps 753 mmHg 28%
    15:00 +14°C° 0 mm 5 mps 753 mmHg 30%
    16:00 +14°C° 0 mm 4 mps 753 mmHg 32%
    17:00 +13°C° 0 mm 3 mps 753 mmHg 34%
    18:00 +12°C° 0 mm 3 mps 753 mmHg 36%
    19:00 +11°C° 0 mm 3 mps 753 mmHg 37%
    20:00 +11°C° 0 mm 3 mps 753 mmHg 39%
    21:00 +10°C° 0 mm 3 mps 752 mmHg 40%
    22:00 +10°C° 0 mm 3 mps 752 mmHg 40%
    23:00 +10°C° 0 mm 3 mps 752 mmHg 41%

    28 September, Friday

    Time Temperature Precipitation Wind Pressure Humidity
    00:00 +10°C° 0 mm 3 mps 752 mmHg 42%
    01:00 +10°C° 0 mm 3 mps 752 mmHg 43%
    02:00 +9°C° 0 mm 3 mps 751 mmHg 45%
    03:00 +9°C° 0 mm 3 mps 751 mmHg 46%
    04:00 +9°C° 0 mm 3 mps 751 mmHg 48%
    05:00 +9°C° 0 mm 2 mps 751 mmHg 49%
    06:00 +10°C° 0 mm 3 mps 751 mmHg 47%
    07:00 +12°C° 0 mm 3 mps 751 mmHg 44%
    08:00 +13°C° 0 mm 3 mps 751 mmHg 42%
    09:00 +16°C° 0 mm 3 mps 751 mmHg 40%
    10:00 +18°C° 0 mm 3 mps 751 mmHg 38%
    11:00 +20°C° 0 mm 4 mps 750 mmHg 36%
    12:00 +20°C° 0 mm 4 mps 750 mmHg 36%
    13:00 +21°C° 0 mm 4 mps 749 mmHg 36%
    14:00 +22°C° 0 mm 4 mps 749 mmHg 37%
    15:00 +21°C° 0 mm 3 mps 749 mmHg 40%
    16:00 +20°C° 0 mm 3 mps 748 mmHg 43%
    17:00 +19°C° 0 mm 2 mps 748 mmHg 46%
    18:00 +18°C° 0 mm 2 mps 748 mmHg 48%
    19:00 +17°C° 0 mm 2 mps 748 mmHg 50%
    20:00 +16°C° 0 mm 2 mps 749 mmHg 52%
    21:00 +16°C° 0 mm 2 mps 749 mmHg 53%
    22:00 +15°C° 0 mm 1 mps 748 mmHg 54%
    23:00 +15°C° 0 mm 1 mps 748 mmHg 56%
    Show more